Location: Castrojimeno
(41.3966°N, 3.8473°W)
Time: 08:25:10
(UTC+00:00)

Cosmos 1741 Rocket - Pass Details

Date: 15 May 2026
Orbit: 757 x 778 km, 74.0° (Epoch: 5 June)

Event Time Altitude Azimuth Distance (km) Brightness Sun altitude
Rises 20:05:52 0° 338° (NNW) 3,268 8.3 -7.1°
Reaches altitude 10° 20:08:16 10° 337° (NNW) 2,335 7.5 -7.4°
Maximum altitude 20:13:34 76° 253° (WSW) 803 4.2 -8.3°
Drops below altitude 10° 20:18:48 10° 168° (SSE) 2,310 6.1 -9.1°
Enters shadow 20:20:25 - 167° (SSE) 2,936 6.6 -9.3°
